Walhalla, ND

4:09 AM CDT on August 23, 2017 (GMT -0500)
Walhalla

Weather History for K96D - January, 2013

Change the Weather History Date:

Monday, January 14, 2013

  Actual Average (KGAF) Record (KGAF)
Temperature  
Mean Temperature -2 °F -  
Max Temperature 5 °F 13 °F 39 °F (1987)
Min Temperature -7 °F -3 °F -31 °F (1972)
Degree Days  
Heating Degree Days 67    
Moisture  
Dew Point -6 °F    
Average Humidity 81    
Maximum Humidity 92    
Minimum Humidity 72    
Precipitation  
Precipitation 0.00 in - - ()
Sea Level Pressure  
Sea Level Pressure 30.19 in    
Wind  
Wind Speed 4 mph (West)    
Max Wind Speed 9 mph    
Max Gust Speed -    
Visibility 10 miles    
Events      
Averages and records for this station are not official NWS values.
T = Trace of Precipitation, MM = Missing Value Source: NWS Daily Summary

Daily Weather History Graph

Daily Weather History Graph

Search for Another Location

Airport or City:

Trip Planner

Search our weather history database for the weather conditions in past years. The results will help you decide how hot, cold, wet, or windy it might be!

Date:

Astronomy

Jan. 14, 2013 Rise Set
Actual Time 8:20 AM CST 5:01 PM CST
Civil Twilight 7:44 AM CST 5:37 PM CST
Nautical Twilight 7:05 AM CST 6:16 PM CST
Astronomical Twilight 6:27 AM CST 6:54 PM CST
Moon 9:33 AM CST (1/14) 9:12 PM CST (1/14)
Length of Visible Light 9h 52m
Length of Day
8h 41m
Waxing Crescent, 11% of the Moon is Illuminated
Jan 14
Waxing Crescent
Jan 18
First Quarter
Jan 26
Full
Feb 3
Last Quarter
Feb 10
New

Hourly Weather History & Observations

Time (CST) Temp. Windchill Dew Point Humidity Pressure Visibility Wind Dir Wind Speed Gust Speed Precip Events Conditions
12:15 AM -4.0 °F -14.6 °F -7.6 °F 85% 30.19 in - West 4.6 mph - N/A   Unknown
12:35 AM -4.0 °F -16.3 °F -9.4 °F 78% 30.19 in - West 5.8 mph - N/A   Scattered Clouds
12:55 AM -4.0 °F -17.8 °F -9.4 °F 78% 30.19 in - West 6.9 mph - N/A   Partly Cloudy
1:15 AM -7.6 °F -20.6 °F -11.2 °F 84% 30.19 in - West 5.8 mph - N/A   Unknown
1:35 AM -4.0 °F -14.6 °F -9.4 °F 78% 30.19 in - West 4.6 mph - N/A   Overcast
1:55 AM -4.0 °F -12.4 °F -9.4 °F 78% 30.19 in - WSW 3.5 mph - N/A   Overcast
2:15 AM -2.2 °F -10.4 °F -7.6 °F 78% 30.19 in - WSW 3.5 mph - N/A   Overcast
2:35 AM -2.2 °F - -7.6 °F 78% 30.20 in - Calm Calm - N/A   Overcast
2:55 AM -2.2 °F -10.4 °F -7.6 °F 78% 30.20 in - SE 3.5 mph - N/A   Overcast
3:15 AM -2.2 °F - -7.6 °F 78% 30.20 in - Calm Calm - N/A   Overcast
3:35 AM -2.2 °F - -7.6 °F 78% 30.19 in - Calm Calm - N/A   Overcast
4:15 AM -2.2 °F - -4.0 °F 92% 30.19 in - Calm Calm - N/A   Unknown
4:35 AM -2.2 °F - -4.0 °F 92% 30.19 in - Calm Calm - N/A   Unknown
4:55 AM -0.4 °F -10.4 °F -4.0 °F 85% 30.19 in - West 4.6 mph - N/A   Unknown
5:15 AM -2.2 °F -14.2 °F -5.8 °F 85% 30.19 in - West 5.8 mph - N/A   Unknown
5:35 AM -2.2 °F -15.6 °F -5.8 °F 85% 30.19 in - West 6.9 mph - N/A   Unknown
5:55 AM -2.2 °F -14.2 °F -5.8 °F 85% 30.19 in - West 5.8 mph - N/A   Unknown
6:15 AM -2.2 °F -10.4 °F -7.6 °F 78% 30.20 in 10.0 mi NW 3.5 mph - N/A   Overcast
6:35 AM -2.2 °F - -7.6 °F 78% 30.20 in 10.0 mi Calm Calm - N/A   Overcast
6:55 AM -2.2 °F -10.4 °F -5.8 °F 85% 30.20 in 10.0 mi WSW 3.5 mph - N/A   Overcast
7:15 AM -4.0 °F -14.6 °F -7.6 °F 85% 30.21 in - West 4.6 mph - N/A   Overcast
7:35 AM -5.8 °F -18.4 °F -9.4 °F 84% 30.21 in - West 5.8 mph - N/A   Unknown
7:55 AM -5.8 °F -16.7 °F -9.4 °F 84% 30.22 in - WSW 4.6 mph - N/A   Unknown
8:15 AM -4.0 °F -14.6 °F -9.4 °F 78% 30.22 in - WSW 4.6 mph - N/A   Partly Cloudy
8:35 AM -5.8 °F -18.4 °F -9.4 °F 84% 30.23 in - West 5.8 mph - N/A   Unknown
8:55 AM -4.0 °F -16.3 °F -7.6 °F 85% 30.23 in - West 5.8 mph - N/A   Unknown
9:15 AM -4.0 °F -12.4 °F -7.6 °F 85% 30.24 in - WSW 3.5 mph - N/A   Mostly Cloudy
9:35 AM -4.0 °F -16.3 °F -7.6 °F 85% 30.24 in - West 5.8 mph - N/A   Unknown
9:55 AM -4.0 °F -17.8 °F -7.6 °F 85% 30.24 in - West 6.9 mph - N/A   Unknown
10:15 AM -2.2 °F -15.6 °F -7.6 °F 78% 30.23 in - WSW 6.9 mph - N/A   Clear
10:35 AM -2.2 °F -18.0 °F -7.6 °F 78% 30.24 in - WSW 9.2 mph - N/A   Mostly Cloudy
10:55 AM -2.2 °F -12.5 °F -7.6 °F 78% 30.24 in - West 4.6 mph - N/A   Scattered Clouds
11:15 AM -2.2 °F -12.5 °F -7.6 °F 78% 30.24 in 10.0 mi West 4.6 mph - N/A   Partly Cloudy
11:35 AM -2.2 °F -12.5 °F -7.6 °F 78% 30.24 in 10.0 mi West 4.6 mph - N/A   Clear
11:55 AM -0.4 °F -8.3 °F -7.6 °F 72% 30.23 in - WSW 3.5 mph - N/A   Scattered Clouds
12:15 PM -0.4 °F - -5.8 °F 78% 30.23 in - Calm Calm - N/A   Mostly Cloudy
12:35 PM -0.4 °F - -5.8 °F 78% 30.21 in - Calm Calm - N/A   Scattered Clouds
12:55 PM 1.4 °F -11.3 °F -4.0 °F 78% 30.20 in - SW 6.9 mph - N/A   Clear
1:15 PM 1.4 °F -12.5 °F -4.0 °F 78% 30.19 in - WSW 8.1 mph - N/A   Partly Cloudy
1:35 PM 1.4 °F -11.3 °F -4.0 °F 78% 30.19 in - West 6.9 mph - N/A   Scattered Clouds
1:55 PM 1.4 °F -8.3 °F -4.0 °F 78% 30.19 in - WNW 4.6 mph - N/A   Partly Cloudy
2:15 PM 1.4 °F -9.9 °F -4.0 °F 78% 30.19 in - West 5.8 mph - N/A   Clear
2:35 PM 1.4 °F -8.3 °F -4.0 °F 78% 30.19 in 10.0 mi West 4.6 mph - N/A   Clear
2:55 PM 1.4 °F -6.2 °F -4.0 °F 78% 30.20 in 10.0 mi West 3.5 mph - N/A   Mostly Cloudy
3:15 PM 1.4 °F -12.5 °F -4.0 °F 78% 30.19 in 10.0 mi West 8.1 mph - N/A   Mostly Cloudy
3:35 PM -0.4 °F -12.0 °F -5.8 °F 78% 30.19 in 10.0 mi West 5.8 mph - N/A   Partly Cloudy
4:15 PM -0.4 °F -8.3 °F -7.6 °F 72% 30.19 in - WSW 3.5 mph - N/A   Clear
4:35 PM -0.4 °F -10.4 °F -7.6 °F 72% 30.18 in - West 4.6 mph - N/A   Mostly Cloudy
4:55 PM -0.4 °F -12.0 °F -7.6 °F 72% 30.18 in - West 5.8 mph - N/A   Overcast
5:15 PM -0.4 °F -10.4 °F -7.6 °F 72% 30.18 in - West 4.6 mph - N/A   Overcast
5:35 PM -0.4 °F - -5.8 °F 78% 30.18 in 10.0 mi Calm Calm - N/A   Overcast
5:55 PM -0.4 °F - -5.8 °F 78% 30.17 in 10.0 mi Calm Calm - N/A   Overcast
6:15 PM -0.4 °F - -5.8 °F 78% 30.17 in 10.0 mi Calm Calm - N/A   Overcast
6:35 PM -0.4 °F - -5.8 °F 78% 30.16 in 10.0 mi Calm Calm - N/A   Overcast
6:55 PM -0.4 °F - -4.0 °F 85% 30.16 in 10.0 mi Calm Calm - N/A   Overcast
7:15 PM -0.4 °F -8.3 °F -4.0 °F 85% 30.16 in 10.0 mi WSW 3.5 mph - N/A   Overcast
7:35 PM -0.4 °F - -4.0 °F 85% 30.16 in - Calm Calm - N/A   Overcast
7:55 PM -0.4 °F - -4.0 °F 85% 30.15 in 10.0 mi Calm Calm - N/A   Overcast
8:15 PM -0.4 °F -8.3 °F -4.0 °F 85% 30.15 in - WSW 3.5 mph - N/A   Overcast
8:35 PM -0.4 °F - -4.0 °F 85% 30.14 in - Calm Calm - N/A   Overcast
8:55 PM -0.4 °F - -4.0 °F 85% 30.14 in 10.0 mi Calm Calm - N/A   Overcast
9:15 PM -0.4 °F - -4.0 °F 85% 30.14 in 10.0 mi Calm Calm - N/A   Overcast
9:35 PM -0.4 °F - -4.0 °F 85% 30.13 in 10.0 mi Calm Calm - N/A   Overcast
9:55 PM 1.4 °F - -2.2 °F 85% 30.12 in 10.0 mi Calm Calm - N/A   Overcast
10:15 PM 3.2 °F - -2.2 °F 78% 30.11 in - Calm Calm - N/A   Overcast
10:35 PM 3.2 °F - -2.2 °F 78% 30.10 in - Calm Calm - N/A   Overcast
10:55 PM 3.2 °F - -0.4 °F 85% 30.10 in 10.0 mi Calm Calm - N/A   Overcast
11:15 PM -0.4 °F - -2.2 °F 92% 30.11 in 10.0 mi Calm Calm - N/A   Overcast
11:35 PM 3.2 °F - -0.4 °F 85% 30.10 in 10.0 mi Calm Calm - N/A   Overcast
11:55 PM 5.0 °F - -0.4 °F 78% 30.09 in 10.0 mi Calm Calm - N/A   Overcast